Zurück zum Katalog

FENGYUN 1C DEB

AktivSSO
NORAD 31609·DEBRIS·🇨🇳 China

Gestartet May 10, 1999 von Taiyuan Satellite Launch Center

Loading…

Nächste Überflüge (nächste 24 Stunden)

TLE

AktuellSource: Space-Track

Epoche: Sep 13, 2026, 01:34 UTC

1 31609U 99025BZP 26256.06571296  .00002433  00000-0  11720-2 0  9996
2 31609  99.1986 299.0270 0090978 262.9815 126.1297 14.17583398699694

Verfolge FENGYUN 1C DEB in Echtzeit mit AllMySat

Download on the App Store